VOI283 MMPR-MMMX

Flight info

Callsign VOI283
Flight time 0h 59m
Altitude 35000
Route VOLAT1D VOLAT UT119 ESPOS ESPOS3A
Aircraft A320/M-SDE3FGHIRWY/LB1

Departure

Time 2026-05-04 01:32
Airport Puerto Vallarta International Airport (MMPR)

Arrival

Time 2026-05-04 02:31
Airport Mexico City Benito Juárez International Airport (MMMX)
Time Latitude Longitude Altitude Speed Heading
2026-05-04 01:22 20.67890 -105.24819 29 ft 0 kts 227°
2026-05-04 01:25 20.67894 -105.24814 29 ft 2 kts 226°
2026-05-04 01:25 20.67905 -105.24801 29 ft 2 kts 232°
2026-05-04 01:26 20.67915 -105.24787 29 ft 2 kts 242°
2026-05-04 01:26 20.67921 -105.24771 29 ft 2 kts 270°
2026-05-04 01:26 20.67917 -105.24755 29 ft 1 kts 316°
2026-05-04 01:26 20.67915 -105.24753 29 ft 0 kts 317°
2026-05-04 01:27 20.67917 -105.24755 29 ft 1 kts 317°
2026-05-04 01:27 20.67924 -105.24762 29 ft 2 kts 317°
2026-05-04 01:27 20.67937 -105.24775 29 ft 3 kts 317°
2026-05-04 01:27 20.67959 -105.24796 29 ft 5 kts 317°
2026-05-04 01:28 20.67992 -105.24829 29 ft 8 kts 317°
2026-05-04 01:28 20.68020 -105.24845 29 ft 3 kts 19°
2026-05-04 01:28 20.68038 -105.24827 29 ft 5 kts 47°
2026-05-04 01:28 20.68068 -105.24793 29 ft 7 kts 47°
2026-05-04 01:29 20.68108 -105.24748 29 ft 9 kts 44°
2026-05-04 01:29 20.68175 -105.24719 29 ft 12 kts 17°
2026-05-04 01:29 20.68259 -105.24691 29 ft 14 kts 17°
2026-05-04 01:29 20.68357 -105.24659 29 ft 16 kts 17°
2026-05-04 01:30 20.68469 -105.24620 29 ft 18 kts 28°
2026-05-04 01:30 20.68559 -105.24525 29 ft 19 kts 46°
2026-05-04 01:30 20.68654 -105.24416 29 ft 21 kts 47°
2026-05-04 01:30 20.68760 -105.24295 29 ft 23 kts 46°
2026-05-04 01:31 20.68874 -105.24295 29 ft 14 kts 313°
2026-05-04 01:31 20.68905 -105.24383 29 ft 14 kts 239°
2026-05-04 01:31 20.68778 -105.24535 30 ft 58 kts 227°
2026-05-04 01:31 20.68351 -105.25025 28 ft 119 kts 227°
2026-05-04 01:32 20.67681 -105.25791 121 ft 156 kts 225°
2026-05-04 01:32 20.66936 -105.26632 633 ft 159 kts 225°
2026-05-04 01:32 20.66045 -105.27387 1105 ft 173 kts 197°
2026-05-04 01:32 20.64815 -105.27210 1515 ft 192 kts 148°
2026-05-04 01:33 20.63894 -105.26172 2193 ft 196 kts 127°
2026-05-04 01:33 20.63142 -105.24939 2927 ft 200 kts 122°
2026-05-04 01:33 20.62449 -105.23586 3438 ft 218 kts 121°
2026-05-04 01:33 20.61633 -105.22107 3787 ft 243 kts 122°
2026-05-04 01:34 20.60768 -105.20600 4873 ft 232 kts 122°
2026-05-04 01:34 20.59920 -105.19137 5833 ft 233 kts 122°
2026-05-04 01:34 20.59039 -105.17619 6372 ft 251 kts 122°
2026-05-04 01:34 20.58078 -105.15960 6660 ft 275 kts 122°
2026-05-04 01:35 20.57038 -105.14159 7126 ft 292 kts 122°
2026-05-04 01:35 20.55959 -105.12286 7803 ft 298 kts 122°
2026-05-04 01:35 20.54872 -105.10398 8620 ft 299 kts 122°
2026-05-04 01:35 20.53771 -105.08487 9342 ft 304 kts 123°
2026-05-04 01:36 20.52657 -105.06553 10086 ft 309 kts 123°
2026-05-04 01:36 20.51495 -105.04537 10363 ft 331 kts 122°
2026-05-04 01:36 20.50266 -105.02407 10552 ft 351 kts 122°
2026-05-04 01:36 20.48970 -105.00156 11047 ft 359 kts 123°
2026-05-04 01:37 20.47648 -104.97865 11631 ft 365 kts 122°
2026-05-04 01:37 20.46315 -104.95557 12237 ft 367 kts 122°
2026-05-04 01:37 20.44974 -104.93235 12798 ft 373 kts 122°
2026-05-04 01:37 20.43571 -104.90801 13095 ft 393 kts 122°
2026-05-04 01:38 20.42155 -104.88349 14063 ft 382 kts 122°
2026-05-04 01:38 20.40765 -104.85942 14776 ft 381 kts 121°
2026-05-04 01:38 20.39595 -104.83406 15357 ft 383 kts 110°
2026-05-04 01:38 20.38894 -104.80645 15881 ft 387 kts 99°
2026-05-04 01:39 20.38681 -104.77779 16418 ft 389 kts 91°
2026-05-04 01:39 20.38580 -104.74886 16986 ft 391 kts 92°
2026-05-04 01:39 20.38471 -104.71984 17491 ft 394 kts 91°
2026-05-04 01:39 20.38353 -104.69050 18020 ft 397 kts 92°
2026-05-04 01:40 20.38229 -104.66102 18524 ft 399 kts 92°
2026-05-04 01:40 20.38104 -104.63131 18928 ft 403 kts 91°
2026-05-04 01:40 20.37979 -104.60137 19372 ft 406 kts 91°
2026-05-04 01:40 20.37856 -104.57122 19822 ft 409 kts 91°
2026-05-04 01:41 20.37733 -104.54082 20227 ft 412 kts 91°
2026-05-04 01:41 20.37609 -104.51020 20657 ft 415 kts 91°
2026-05-04 01:41 20.37482 -104.47932 21081 ft 418 kts 91°
2026-05-04 01:41 20.37352 -104.44821 21506 ft 421 kts 91°
2026-05-04 01:42 20.37224 -104.41734 21916 ft 425 kts 91°
2026-05-04 01:42 20.37094 -104.38574 22306 ft 428 kts 90°
2026-05-04 01:42 20.36960 -104.35385 22664 ft 431 kts 90°
2026-05-04 01:42 20.36820 -104.32181 23026 ft 435 kts 92°
2026-05-04 01:43 20.36383 -104.28978 23385 ft 440 kts 102°
2026-05-04 01:43 20.35495 -104.25844 23724 ft 444 kts 107°
2026-05-04 01:43 20.34529 -104.22709 24043 ft 447 kts 107°
2026-05-04 01:43 20.33565 -104.19554 24332 ft 449 kts 107°
2026-05-04 01:44 20.32599 -104.16379 24653 ft 452 kts 107°
2026-05-04 01:44 20.31628 -104.13190 24986 ft 454 kts 107°
2026-05-04 01:44 20.30653 -104.09984 25317 ft 456 kts 107°
2026-05-04 01:44 20.29674 -104.06756 25616 ft 459 kts 107°
2026-05-04 01:45 20.28693 -104.03519 25924 ft 461 kts 107°
2026-05-04 01:45 20.27700 -104.00261 26233 ft 464 kts 107°
2026-05-04 01:45 20.25694 -103.93703 26845 ft 468 kts 107°
2026-05-04 01:46 20.24685 -103.90400 27128 ft 470 kts 107°
2026-05-04 01:46 20.23671 -103.87086 27480 ft 471 kts 107°
2026-05-04 01:46 20.22655 -103.83761 27787 ft 474 kts 107°
2026-05-04 01:46 20.21634 -103.80417 28078 ft 476 kts 107°
2026-05-04 01:47 20.20607 -103.77057 28351 ft 479 kts 107°
2026-05-04 01:47 20.19572 -103.73677 28693 ft 481 kts 107°
2026-05-04 01:47 20.18545 -103.70329 29038 ft 483 kts 107°
2026-05-04 01:47 20.17497 -103.66922 29348 ft 486 kts 107°
2026-05-04 01:48 20.16439 -103.63499 29647 ft 488 kts 107°
2026-05-04 01:48 20.15375 -103.60060 29931 ft 491 kts 107°
2026-05-04 01:48 20.14307 -103.56598 30215 ft 493 kts 107°
2026-05-04 01:48 20.13242 -103.53137 30604 ft 492 kts 107°
2026-05-04 01:49 20.12177 -103.49677 30983 ft 492 kts 107°
2026-05-04 01:49 20.11110 -103.46221 31301 ft 492 kts 107°
2026-05-04 01:49 20.10039 -103.42761 31652 ft 493 kts 107°
2026-05-04 01:49 20.08966 -103.39298 32056 ft 493 kts 107°
2026-05-04 01:50 20.07893 -103.35836 32439 ft 493 kts 107°
2026-05-04 01:50 20.06818 -103.32367 32821 ft 493 kts 107°
2026-05-04 01:50 20.05743 -103.28907 33203 ft 493 kts 107°
2026-05-04 01:50 20.04667 -103.25437 33601 ft 493 kts 107°
2026-05-04 01:51 20.03592 -103.21971 33987 ft 494 kts 108°
2026-05-04 01:51 20.02517 -103.18507 34353 ft 493 kts 108°
2026-05-04 01:51 20.01444 -103.15053 34711 ft 493 kts 108°
2026-05-04 01:51 20.00366 -103.11591 34836 ft 492 kts 108°
2026-05-04 01:52 19.98205 -103.04663 34870 ft 493 kts 108°
2026-05-04 01:52 19.96048 -102.97762 34879 ft 491 kts 108°
2026-05-04 01:53 19.93806 -102.90909 34856 ft 491 kts 110°
2026-05-04 01:53 19.91261 -102.84236 34856 ft 491 kts 112°
2026-05-04 01:54 19.88598 -102.77556 34854 ft 491 kts 112°
2026-05-04 01:54 19.85992 -102.70855 34869 ft 491 kts 111°
2026-05-04 01:55 19.83440 -102.64126 34868 ft 491 kts 111°
2026-05-04 01:55 19.80899 -102.57396 34873 ft 491 kts 111°
2026-05-04 01:56 19.78331 -102.50670 34870 ft 491 kts 112°
2026-05-04 01:56 19.75751 -102.43958 34915 ft 491 kts 112°
2026-05-04 01:57 19.73172 -102.37242 34916 ft 491 kts 111°
2026-05-04 01:57 19.70597 -102.30528 34930 ft 491 kts 111°
2026-05-04 01:58 19.68016 -102.23807 34938 ft 491 kts 111°
2026-05-04 01:58 19.65440 -102.17108 35028 ft 490 kts 111°
2026-05-04 01:59 19.62871 -102.10459 35089 ft 490 kts 111°
2026-05-04 01:59 19.60284 -102.03776 35123 ft 490 kts 111°
2026-05-04 02:00 19.57696 -101.97087 35143 ft 490 kts 111°
2026-05-04 02:00 19.55118 -101.90412 35137 ft 489 kts 111°
2026-05-04 02:01 19.52544 -101.83742 35105 ft 489 kts 111°
2026-05-04 02:01 19.50400 -101.78205 35069 ft 489 kts 111°
2026-05-04 02:02 19.47815 -101.71547 35015 ft 488 kts 112°
2026-05-04 02:02 19.45220 -101.64903 34965 ft 488 kts 112°
2026-05-04 02:03 19.42625 -101.58257 34956 ft 488 kts 111°
2026-05-04 02:03 19.40042 -101.51629 34952 ft 486 kts 111°
2026-05-04 02:04 19.37460 -101.45023 34927 ft 485 kts 111°
2026-05-04 02:04 19.34885 -101.38435 34924 ft 484 kts 111°
2026-05-04 02:05 19.32313 -101.31857 34925 ft 483 kts 111°
2026-05-04 02:05 19.29747 -101.25296 34861 ft 482 kts 112°
2026-05-04 02:06 19.27182 -101.18745 34861 ft 482 kts 111°
2026-05-04 02:06 19.24610 -101.12192 34861 ft 482 kts 112°
2026-05-04 02:07 19.22031 -101.05639 34860 ft 482 kts 112°
2026-05-04 02:07 19.19462 -100.99130 34812 ft 482 kts 112°
2026-05-04 02:08 19.16878 -100.92587 34816 ft 482 kts 112°
2026-05-04 02:08 19.14294 -100.86041 34792 ft 482 kts 112°
2026-05-04 02:09 19.11712 -100.79509 34801 ft 481 kts 112°
2026-05-04 02:09 19.09131 -100.72988 34804 ft 480 kts 112°
2026-05-04 02:10 19.06553 -100.66479 34782 ft 479 kts 112°
2026-05-04 02:10 19.03975 -100.59982 34782 ft 479 kts 112°
2026-05-04 02:11 19.01396 -100.53489 34781 ft 479 kts 112°
2026-05-04 02:11 18.98818 -100.46996 34779 ft 479 kts 112°
2026-05-04 02:12 18.96248 -100.40502 34795 ft 480 kts 112°
2026-05-04 02:12 18.93674 -100.34036 34800 ft 479 kts 112°
2026-05-04 02:13 18.91090 -100.27553 34832 ft 479 kts 112°
2026-05-04 02:13 18.88495 -100.21059 34647 ft 480 kts 112°
2026-05-04 02:14 18.87198 -100.17822 34418 ft 477 kts 112°
2026-05-04 02:14 18.85906 -100.14600 34189 ft 476 kts 112°
2026-05-04 02:14 18.84618 -100.11386 34005 ft 475 kts 112°
2026-05-04 02:14 18.83328 -100.08171 33741 ft 476 kts 112°
2026-05-04 02:15 18.82037 -100.04959 33484 ft 476 kts 112°
2026-05-04 02:15 18.80743 -100.01736 32918 ft 478 kts 112°
2026-05-04 02:15 18.79432 -99.98465 31666 ft 490 kts 111°
2026-05-04 02:15 18.78090 -99.95118 30799 ft 495 kts 111°
2026-05-04 02:16 18.76751 -99.91786 30235 ft 491 kts 111°
2026-05-04 02:16 18.75497 -99.88445 29532 ft 487 kts 104°
2026-05-04 02:16 18.74804 -99.84983 28889 ft 477 kts 93°
2026-05-04 02:16 18.74734 -99.81515 28255 ft 468 kts 83°
2026-05-04 02:17 18.75242 -99.78197 27490 ft 462 kts 72°
2026-05-04 02:17 18.76332 -99.75036 26841 ft 454 kts 63°
2026-05-04 02:17 18.77641 -99.72025 26135 ft 451 kts 63°
2026-05-04 02:17 18.78913 -99.69047 25379 ft 441 kts 64°
2026-05-04 02:18 18.80150 -99.66113 24660 ft 432 kts 64°
2026-05-04 02:18 18.81350 -99.63250 23995 ft 422 kts 64°
2026-05-04 02:18 18.82528 -99.60439 23304 ft 414 kts 64°
2026-05-04 02:18 18.83686 -99.57696 22601 ft 405 kts 64°
2026-05-04 02:19 18.84824 -99.55010 21977 ft 397 kts 64°
2026-05-04 02:19 18.85944 -99.52370 21323 ft 391 kts 64°
2026-05-04 02:19 18.87050 -99.49767 20710 ft 387 kts 64°
2026-05-04 02:19 18.88150 -99.47177 20149 ft 387 kts 64°
2026-05-04 02:20 18.89256 -99.44579 19533 ft 388 kts 64°
2026-05-04 02:20 18.90360 -99.41976 18918 ft 389 kts 65°
2026-05-04 02:20 18.91466 -99.39360 18324 ft 390 kts 65°
2026-05-04 02:20 18.92555 -99.36779 18271 ft 378 kts 65°
2026-05-04 02:21 18.93598 -99.34292 18158 ft 364 kts 65°
2026-05-04 02:21 18.94728 -99.31963 18059 ft 348 kts 53°
2026-05-04 02:21 18.96183 -99.29982 17975 ft 341 kts 50°
2026-05-04 02:21 18.97682 -99.27988 17873 ft 357 kts 50°
2026-05-04 02:22 18.99252 -99.25903 17595 ft 366 kts 51°
2026-05-04 02:22 19.00843 -99.23790 17361 ft 368 kts 50°
2026-05-04 02:22 19.02453 -99.21647 16442 ft 376 kts 51°
2026-05-04 02:22 19.04067 -99.19492 15999 ft 372 kts 51°
2026-05-04 02:23 19.05666 -99.17358 15480 ft 369 kts 51°
2026-05-04 02:23 19.07255 -99.15240 14947 ft 367 kts 51°
2026-05-04 02:23 19.08838 -99.13137 14427 ft 365 kts 51°
2026-05-04 02:23 19.10395 -99.11066 14277 ft 352 kts 51°
2026-05-04 02:24 19.11875 -99.09094 14195 ft 339 kts 51°
2026-05-04 02:24 19.13317 -99.07168 14076 ft 330 kts 51°
2026-05-04 02:24 19.14725 -99.05287 13953 ft 321 kts 51°
2026-05-04 02:24 19.16251 -99.03627 13832 ft 311 kts 31°
2026-05-04 02:25 19.18242 -99.02926 13729 ft 299 kts
2026-05-04 02:25 19.20242 -99.03372 13341 ft 296 kts 329°
2026-05-04 02:25 19.21890 -99.04663 12994 ft 295 kts 317°
2026-05-04 02:25 19.23352 -99.06165 12639 ft 289 kts 313°
2026-05-04 02:26 19.24654 -99.07735 12287 ft 279 kts 301°
2026-05-04 02:26 19.25670 -99.09457 11823 ft 275 kts 302°
2026-05-04 02:26 19.26751 -99.11110 11360 ft 272 kts 305°
2026-05-04 02:26 19.27870 -99.12707 10909 ft 269 kts 306°
2026-05-04 02:27 19.29005 -99.14273 10479 ft 265 kts 307°
2026-05-04 02:27 19.30100 -99.15769 10390 ft 248 kts 307°
2026-05-04 02:27 19.31115 -99.17159 10365 ft 228 kts 307°
2026-05-04 02:27 19.32091 -99.18376 10259 ft 209 kts 316°
2026-05-04 02:28 19.33308 -99.19147 9781 ft 201 kts 339°
2026-05-04 02:28 19.34659 -99.19361 9413 ft 193 kts
2026-05-04 02:28 19.35949 -99.19062 9393 ft 189 kts 22°
2026-05-04 02:28 19.37053 -99.18332 9363 ft 187 kts 42°
2026-05-04 02:29 19.37842 -99.17260 9329 ft 185 kts 59°
2026-05-04 02:29 19.38493 -99.16083 9277 ft 185 kts 58°
2026-05-04 02:29 19.39143 -99.14925 9155 ft 182 kts 58°
2026-05-04 02:29 19.39789 -99.13798 8946 ft 176 kts 55°
2026-05-04 02:30 19.40537 -99.12776 8566 ft 175 kts 51°
2026-05-04 02:30 19.41264 -99.11732 8145 ft 178 kts 56°
2026-05-04 02:30 19.41898 -99.10610 7820 ft 176 kts 60°
2026-05-04 02:30 19.42479 -99.09553 7509 ft 157 kts 60°
2026-05-04 02:31 19.43021 -99.08584 7308 ft 147 kts 60°
2026-05-04 02:31 19.43465 -99.07793 7304 ft 100 kts 59°
2026-05-04 02:31 19.43732 -99.07316 7303 ft 49 kts 59°
2026-05-04 02:31 19.43824 -99.07240 7303 ft 9 kts 348°
2026-05-04 02:32 19.43859 -99.07257 7303 ft 3 kts 322°
2026-05-04 02:32 19.43870 -99.07273 7303 ft 2 kts 301°
2026-05-04 02:32 19.43873 -99.07284 7303 ft 1 kts 281°
2026-05-04 02:32 19.43866 -99.07311 7303 ft 13 kts 243°
2026-05-04 02:33 19.43796 -99.07437 7303 ft 22 kts 239°
2026-05-04 02:33 19.43717 -99.07575 7303 ft 21 kts 239°
2026-05-04 02:33 19.43644 -99.07706 7303 ft 20 kts 239°
2026-05-04 02:33 19.43574 -99.07832 7303 ft 19 kts 239°
2026-05-04 02:34 19.43506 -99.07952 7303 ft 19 kts 239°
2026-05-04 02:34 19.43442 -99.08067 7303 ft 18 kts 239°
2026-05-04 02:34 19.43381 -99.08175 7303 ft 17 kts 239°
2026-05-04 02:34 19.43324 -99.08277 7303 ft 16 kts 238°
2026-05-04 02:35 19.43270 -99.08373 7303 ft 15 kts 238°
2026-05-04 02:35 19.43220 -99.08462 7303 ft 14 kts 240°
2026-05-04 02:35 19.43174 -99.08545 7303 ft 13 kts 239°
2026-05-04 02:35 19.43131 -99.08623 7303 ft 12 kts 238°
2026-05-04 02:36 19.43098 -99.08693 7303 ft 8 kts 283°
2026-05-04 02:36 19.43135 -99.08732 7303 ft 7 kts 315°
2026-05-04 02:36 19.43174 -99.08765 7303 ft 7 kts 326°
2026-05-04 02:36 19.43210 -99.08756 7303 ft 6 kts 52°
2026-05-04 02:37 19.43219 -99.08741 7303 ft 1 kts 62°
2026-05-04 02:37 19.43219 -99.08740 7303 ft 0 kts 62°